Location: Stuttgart
(48.8069°N, 9.1544°E)
Time: 23:46:22
(UTC+01:00)

ISS - Pass Details

Date: 16 November 2017
Orbit: 402 x 407 km, 51.6° (Epoch: 21 November)

Event Time Altitude Azimuth Distance (km) Brightness Sun altitude
Exits shadow 05:38:09 31° 197° (SSW) 740 -2.6 -18.9°
Drops below altitude 10° 05:40:40 10° 149° (SSE) 1,449 -0.5 -18.5°
Sets 05:42:51 0° 139° (SE) 2,305 0.8 -18.1°
